Вернуться в каталог

ATLAS 2AS CENTAUR R/B

АктивенGTO
NORAD 24937·ROCKET BODY·🇺🇸 United States

Запущен Sep 4, 1997 с Cape Canaveral Space Force Station

Loading…

TLE

УстаревающийSource: Space-Track

Эпоха: Sep 14, 2026, 19:28 UTC

1 24937U 97050B   26257.81144033  .00001926  00000-0  12928-2 0  9994
2 24937  18.6653 276.3910 7281065  30.9267 356.6679  2.25840756217078

Отслеживайте ATLAS 2AS CENTAUR R/B в реальном времени с AllMySat

Download on the App Store